Torna al catalogo

SL-16 DEB

AttivoLEO
NORAD 39722·DEBRIS·🇷🇺 Russia

Lanciato Dec 25, 1992 da Baikonur Cosmodrome

Loading…

Prossimi Passaggi (prossime 24 ore)

TLE

AggiornatoSource: Space-Track

Epoca: Sep 14, 2026, 13:34 UTC

1 39722U 92093KN  26257.56553631  .00000254  00000-0  18734-3 0  9999
2 39722  70.8937 191.6301 0102041 134.9754  38.5798 14.02169815634179

Traccia SL-16 DEB in tempo reale con AllMySat

Download on the App Store